[[{"header":{"parameterUnit":"m.s-1","parameterCategory":1,"la1":30.2991,"la2":30.254,"lo1":-89.0895,"lo2":-89.0444,"dy":0.0017,"dx":0.0017,"nx":28,"ny":28,"refTime":"2024-05-26T03:00:00:Z","depth":0,"parameterNumber":2,"parameterNumberName":"U-component_of_WINDS"},"data":[0,0,0,0,0,0,0,0,0,0,0,0,0,0,0,0,0,0,0,0,0,0,0,0,0,0,0,0,0,0,0,0,0,0,0,0,0,0,0,0,0,0,0,0,0,0,0,0,0,0,0,0,0,0,0,0,0,0,0.2742,0.2741,0,0.2675,0.2675,0.2674,0.2635,0.2635,0.2635,0.2635,0.2566,0.2564,0.2563,0,0,0,0,0,0,0,0,0,0,0,0,0,0.2834,0.2833,0.2742,0.2741,0.274,0.2675,0.2674,0.2674,0.2635,0.2635,0.2635,0.2635,0.2567,0.2565,0.2563,0,0,0,0,0,0,0,0,0,0,0,0,0,0.2783,0.2832,0.2742,0.2713,0.271,0.2676,0.2674,0.2673,0.2635,0.2635,0.2635,0.2634,0.2567,0.2565,0.2562,0.2551,0,0,0.2555,0.2554,0,0,0,0,0,0,0,0,0.2786,0.278,0.2718,0.2715,0.2712,0.2663,0.2682,0.2632,0.2635,0.2664,0.2635,0.2634,0.2599,0.2594,0.2581,0.2548,0.2545,0.2554,0.2553,0.2552,0.2551,0,0,0,0,0,0,0,0.279,0.2783,0.2716,0.2717,0.2713,0.2703,0.2696,0.2672,0.2633,0.2661,0.2658,0.2651,0.2597,0.2584,0.258,0.2544,0.2555,0.2552,0.2551,0.255,0.2496,0.2496,0,0,0,0,0,0,0.2798,0.2786,0.2718,0.2714,0.2749,0.2702,0.2693,0.2679,0.2633,0.2626,0.2651,0.2649,0.2588,0.2583,0.2577,0.256,0.2552,0.2549,0.2548,0.2496,0.2496,0.2496,0,0,0,0,0,0,0.28,0.2792,0.272,0.2749,0.2739,0.27,0.2685,0.2678,0.2665,0.2626,0.2618,0.2645,0.2588,0.2581,0.2558,0.2557,0.2548,0.2546,0.2496,0.2496,0.2496,0.2526,0,0,0,0,0,0,0.2803,0.2794,0.2789,0.2749,0.2738,0.2703,0.2685,0.2677,0.2661,0.2658,0.2618,0.2612,0.2587,0.2561,0.2555,0.2553,0.2544,0.2496,0.2496,0.2496,0.2525,0.2527,0.2529,0,0,0,0,0,0.2807,0.2801,0.2789,0.2781,0.2732,0.2703,0.2696,0.2668,0.2661,0.2656,0.263,0.2613,0.2558,0.2559,0.2552,0.2549,0.2496,0.2496,0.2496,0.2524,0.2527,0.2529,0,0,0,0,0,0,0.2842,0.2795,0.2782,0.2763,0.2737,0.2696,0.2689,0.2672,0.2648,0.2646,0.2612,0.2603,0.2583,0.2564,0.2566,0.2535,0.2525,0.2523,0.2548,0.2551,0.2553,0.2558,0.2542,0,0,0,0,0,0.2848,0.2829,0.2788,0.2776,0.2763,0.2729,0.2715,0.2695,0.2667,0.2656,0.2629,0.2602,0.2578,0.2563,0.254,0.2522,0.2512,0.2516,0.2518,0.252,0.2519,0.2506,0.2507,0.2497,0.2497,0.2497,0,0,0.286,0.2831,0.2822,0.2782,0.276,0.274,0.272,0.27,0.2684,0.2653,0.2629,0.2608,0.2576,0.2555,0.2544,0.2538,0.252,0.252,0.2522,0.252,0.2507,0.2508,0.2509,0.2497,0.2497,0.2497,0,0,0.2871,0.2848,0.2834,0.2811,0.2778,0.2754,0.2751,0.2712,0.2697,0.2672,0.2648,0.2629,0.2589,0.2566,0.255,0.255,0.2532,0.2543,0.2554,0.2542,0.2543,0.2543,0.2542,0.2542,0.2543,0.2543,0.2543,0,0.2889,0.2859,0.2829,0.281,0.2792,0.2763,0.2747,0.2727,0.2687,0.2676,0.2669,0.2618,0.2594,0.2567,0.2566,0.2554,0.2548,0.2548,0.2545,0.2545,0.2545,0.2544,0.2544,0.2544,0.2544,0.2544,0.2544,0,0.2882,0.2861,0.2854,0.2816,0.2798,0.2781,0.2748,0.2733,0.2714,0.2692,0.2666,0.2636,0.2605,0.2597,0.258,0.2566,0.2563,0.2552,0.2541,0.2548,0.2546,0.2546,0.2546,0.2546,0.2545,0.2545,0,0,0.2915,0.2859,0.2857,0.2838,0.2798,0.2781,0.2762,0.2731,0.2718,0.2692,0.2674,0.264,0.2629,0.261,0.2589,0.2579,0.2579,0.2568,0.2566,0.257,0.2561,0.257,0.257,0.2567,0.2567,0.2567,0.2563,0,0.2919,0.2884,0.2855,0.2831,0.281,0.278,0.2764,0.2737,0.2714,0.2693,0.2668,0.2645,0.2632,0.262,0.2608,0.2581,0.2577,0.2581,0.255,0.2549,0.2558,0.2569,0.2578,0.2577,0.2563,0.2562,0.2562,0,0.2919,0.2893,0.2866,0.2826,0.2816,0.2802,0.277,0.2751,0.2719,0.2703,0.2681,0.2659,0.2637,0.2628,0.2596,0.26,0.2585,0.257,0.2569,0.2565,0.2556,0.2564,0.2576,0.2576,0.2561,0.2561,0.2561,0,0.2944,0.2901,0.2879,0.2865,0.2818,0.2808,0.2788,0.2756,0.2739,0.2712,0.27,0.267,0.2654,0.2631,0.2601,0.2598,0.2572,0.2561,0.2557,0.2558,0.2553,0.2554,0.2562,0.2545,0.2545,0.2545,0.2545,0,0.2951,0.2935,0.289,0.2876,0.2857,0.2824,0.2806,0.2784,0.2755,0.2736,0.2709,0.2691,0.2654,0.2631,0.2608,0.2584,0.2577,0.2563,0.2557,0.2565,0.2567,0.2555,0.2554,0.2545,0.2545,0.2545,0.2545,0,0.2975,0.2944,0.2918,0.2876,0.2864,0.2852,0.2816,0.2801,0.2777,0.2752,0.2745,0.2707,0.2679,0.2647,0.2609,0.2593,0.257,0.2562,0.2581,0.2578,0.2576,0.2576,0.2576,0.2574,0.2559,0.2559,0.2559,0,0.2981,0.2968,0.2924,0.291,0.289,0.2867,0.2849,0.2816,0.2798,0.276,0.2749,0.2719,0.2693,0.265,0.2618,0.2589,0.2579,0.2581,0.2574,0.2582,0.2577,0.2578,0.2576,0.2583,0.2583,0.2583,0.2583,0,0.2995,0.298,0.2955,0.2925,0.2904,0.2878,0.2852,0.2841,0.2802,0.2783,0.2754,0.2734,0.2694,0.2665,0.263,0.2609,0.2589,0.2586,0.2583,0.2591,0.2602,0.2595,0.2586,0.2586,0.2586,0.2585,0.2585,0.2585,0.301,0.2996,0.2963,0.2936,0.2912,0.2887,0.2871,0.2844,0.2819,0.2784,0.2766,0.2737,0.2704,0.2656,0.2635,0.2611,0.2605,0.2602,0.2601,0.26,0.2602,0.2607,0.2605,0.2605,0.2605,0.2605,0.2605,0,0.3021,0.2998,0.2973,0.2936,0.2915,0.2898,0.2867,0.285,0.2825,0.2796,0.277,0.2736,0.2707,0.2672,0.2641,0.2628,0.2618,0.2621,0.2621,0.2616,0.261,0.2615,0.2629,0.2629,0.2629,0.2629,0.2629,0.2629,0.3025,0.3001,0.2982,0.2945,0.2921,0.2893,0.2876,0.2853,0.2829,0.2792,0.2768,0.2745,0.2714,0.2679,0.2651,0.2641,0.2631,0.2636,0.2624,0.2619,0.2617,0.2615,0.2619,0.2634,0.2634,0.2631,0.2631,0.2631]},{"header":{"parameterUnit":"m.s-1","parameterCategory":1,"la1":30.2991,"la2":30.254,"lo1":-89.0895,"lo2":-89.0444,"dy":0.0017,"dx":0.0017,"nx":28,"ny":28,"refTime":"2024-05-26T03:00:00:Z","depth":0,"parameterNumber":3,"parameterNumberName":"V-component_of_WINDS"},"data":[0,0,0,0,0,0,0,0,0,0,0,0,0,0,0,0,0,0,0,0,0,0,0,0,0,0,0,0,0,0,0,0,0,0,0,0,0,0,0,0,0,0,0,0,0,0,0,0,0,0,0,0,0,0,0,0,0,0,8.4931,8.4932,0,8.5049,8.5051,8.5052,8.4999,8.4996,8.4993,8.499,8.5104,8.511,8.5116,0,0,0,0,0,0,0,0,0,0,0,0,0,8.4651,8.4657,8.4931,8.4932,8.4934,8.5049,8.5051,8.5052,8.5,8.4996,8.4992,8.4989,8.5102,8.5109,8.5116,0,0,0,0,0,0,0,0,0,0,0,0,0,8.4771,8.4659,8.493,8.4922,8.4922,8.5049,8.5051,8.5053,8.5,8.4996,8.4992,8.4987,8.51,8.5109,8.5117,8.5257,0,0,8.5143,8.5147,0,0,0,0,0,0,0,0,8.4765,8.4782,8.4921,8.4922,8.4923,8.5005,8.4994,8.5121,8.5001,8.497,8.499,8.4985,8.5074,8.5085,8.5116,8.5263,8.5267,8.5144,8.5149,8.5153,8.5155,0,0,0,0,0,0,0,8.4756,8.4776,8.4977,8.4923,8.4924,8.4909,8.4921,8.5018,8.5045,8.4973,8.4969,8.4984,8.5074,8.5108,8.5119,8.5269,8.5144,8.5152,8.5157,8.516,8.5534,8.5539,0,0,0,0,0,0,8.4749,8.477,8.4974,8.4981,8.4832,8.4918,8.4931,8.4983,8.5044,8.5049,8.4988,8.4981,8.5096,8.5109,8.5122,8.5289,8.5153,8.5161,8.5166,8.553,8.5535,8.554,0,0,0,0,0,0,8.4743,8.4768,8.4969,8.4875,8.4899,8.4927,8.4985,8.4988,8.5022,8.5056,8.5059,8.5018,8.5093,8.511,8.5224,8.5292,8.5165,8.5173,8.5524,8.5531,8.5538,8.5625,0,0,0,0,0,0,8.4736,8.4766,8.4822,8.4876,8.4904,8.5071,8.499,8.4993,8.5038,8.503,8.5085,8.509,8.5091,8.5212,8.5233,8.5302,8.5179,8.5518,8.5527,8.5536,8.5616,8.5634,8.565,0,0,0,0,0,8.4726,8.484,8.4825,8.485,8.4974,8.5075,8.5091,8.5092,8.5044,8.5098,8.5119,8.5088,8.5282,8.5224,8.5247,8.532,8.5513,8.5525,8.5535,8.5608,8.563,8.5649,0,0,0,0,0,0,8.479,8.4847,8.4831,8.4967,8.5017,8.5066,8.5135,8.5115,8.5178,8.5168,8.5164,8.5177,8.5295,8.5319,8.5253,8.5458,8.539,8.5406,8.5438,8.5459,8.5476,8.5466,8.5187,0,0,0,0,0,8.4821,8.4901,8.4945,8.506,8.5087,8.5107,8.5151,8.5147,8.5198,8.5218,8.5248,8.5296,8.5368,8.5415,8.5483,8.562,8.5629,8.5681,8.5698,8.5711,8.5725,8.5797,8.582,8.5576,8.5576,8.5575,0,0,8.4883,8.4924,8.4974,8.5074,8.5113,8.5193,8.5125,8.5213,8.5271,8.523,8.534,8.5364,8.5417,8.5543,8.56,8.5567,8.5794,8.5725,8.5736,8.5742,8.581,8.5833,8.5854,8.5583,8.5582,8.5581,0,0,8.5038,8.5079,8.5179,8.5219,8.5279,8.5292,8.5316,8.5369,8.5384,8.5494,8.5465,8.5533,8.5658,8.5697,8.5733,8.5903,8.5875,8.5925,8.6012,8.6082,8.6101,8.6118,8.6177,8.6198,8.5938,8.5938,8.5938,0,8.5108,8.523,8.5232,8.5322,8.5366,8.5336,8.5435,8.5473,8.5551,8.5581,8.5544,8.5698,8.5732,8.5866,8.5907,8.5938,8.5963,8.5918,8.6099,8.6116,8.6132,8.6188,8.621,8.5944,8.5943,8.5943,8.5942,0,8.5312,8.5397,8.547,8.5549,8.56,8.5695,8.5708,8.576,8.5752,8.5768,8.588,8.592,8.5995,8.6026,8.6019,8.6159,8.6136,8.6099,8.6031,8.6161,8.6213,8.6234,8.5952,8.595,8.5948,8.5947,0,0,8.5509,8.5589,8.5615,8.565,8.5714,8.5778,8.5871,8.5946,8.599,8.6045,8.612,8.6226,8.6192,8.6233,8.6229,8.6292,8.6421,8.6247,8.6248,8.6276,8.6576,8.6602,8.6627,8.6405,8.6409,8.6412,8.6571,0,8.5668,8.5832,8.5836,8.5985,8.6062,8.6035,8.6114,8.6161,8.6178,8.6244,8.6262,8.6337,8.6288,8.6312,8.6372,8.6393,8.6481,8.6382,8.6472,8.6475,8.6458,8.6655,8.6683,8.6831,8.6591,8.6595,8.6597,0,8.5874,8.5938,8.6096,8.6148,8.6181,8.6253,8.6322,8.6386,8.6437,8.6445,8.6492,8.6479,8.657,8.65,8.6624,8.6556,8.6593,8.6609,8.6615,8.6621,8.6543,8.6665,8.6878,8.6899,8.663,8.6627,8.6625,0,8.6001,8.6126,8.6236,8.6267,8.6331,8.6382,8.6411,8.6458,8.6503,8.6562,8.6591,8.666,8.6697,8.6749,8.6754,8.6703,8.6878,8.6809,8.6885,8.6885,8.6922,8.6919,8.7142,8.6949,8.6949,8.6949,8.6948,0,8.6176,8.6273,8.6293,8.6361,8.6468,8.6471,8.6576,8.66,8.6642,8.6712,8.6692,8.6757,8.676,8.6827,8.6831,8.6932,8.6949,8.6956,8.6956,8.6957,8.6956,8.698,8.6969,8.6954,8.6953,8.6952,8.6951,0,8.6334,8.6352,8.647,8.6522,8.6537,8.6614,8.6657,8.672,8.6735,8.6824,8.6845,8.6868,8.6945,8.6956,8.7046,8.7048,8.7169,8.7159,8.7153,8.715,8.7225,8.7217,8.747,8.7502,8.729,8.7292,8.7294,0,8.6444,8.6518,8.6579,8.6625,8.6657,8.6732,8.6778,8.6784,8.6832,8.6896,8.6951,8.7026,8.7087,8.7211,8.7234,8.7302,8.7292,8.7376,8.7302,8.7301,8.7291,8.7286,8.7292,8.7389,8.7392,8.7394,8.7395,0,8.6636,8.6642,8.6711,8.6783,8.6839,8.6895,8.6948,8.6987,8.6998,8.7053,8.7133,8.718,8.7273,8.7347,8.7414,8.744,8.7419,8.7419,8.7439,8.744,8.7433,8.7436,8.7189,8.7412,8.7411,8.7409,8.7408,8.7408,8.6772,8.6837,8.6889,8.6966,8.7007,8.7057,8.7119,8.7143,8.7211,8.7287,8.7286,8.7373,8.7421,8.7509,8.7541,8.7607,8.7579,8.761,8.7617,8.7624,8.7631,8.7425,8.7619,8.7619,8.7619,8.7618,8.7618,0,8.6962,8.6995,8.7066,8.7141,8.7201,8.7179,8.7237,8.7287,8.7365,8.7413,8.7473,8.7564,8.7636,8.7666,8.7736,8.7783,8.7775,8.7801,8.7796,8.7802,8.7653,8.7627,8.7806,8.7806,8.7806,8.7806,8.7806,8.7806,8.7068,8.7175,8.7186,8.7313,8.7344,8.7431,8.7465,8.751,8.7548,8.7651,8.7712,8.7732,8.7772,8.7845,8.7909,8.7915,8.7941,8.7971,8.7973,8.7832,8.7813,8.7795,8.7771,8.7977,8.7978,8.8117,8.8119,8.812]}]]